This is the latest recevied weather packets stored in our database for station/object KF7SOJ. If no packets are shown the sender has not sent any weather packets the latest 10 day(s).
| Time | Temp. | Humidity | Pressure | Rain* | Wind** | Luminosity | Snow |
|---|---|---|---|---|---|---|---|
| 1788339859 | 15° C | 60% | 926.8 hPa | 0 mm | - | 0 W/m² | - |
| 1788339558 | 15° C | 59% | 926.9 hPa | 0 mm | - | 0 W/m² | - |
| 1788339254 | 15° C | 60% | 927 hPa | 0 mm | - | 0 W/m² | - |
| 1788338948 | 15° C | 60% | 927 hPa | 0 mm | - | 0 W/m² | - |
| 1788338645 | 15° C | 59% | 927.1 hPa | 0 mm | - | 0 W/m² | - |
| 1788338340 | 15.56° C | 58% | 927.1 hPa | 0 mm | - | 0 W/m² | - |
| 1788338040 | 15.56° C | 57% | 927 hPa | 0 mm | - | 0 W/m² | - |
| 1788337735 | 16.11° C | 56% | 926.7 hPa | 0 mm | - | 0 W/m² | - |
| 1788337431 | 17.78° C | 50% | 926.8 hPa | 0 mm | - | 0 W/m² | - |
| 1788337128 | 17.78° C | 50% | 926.7 hPa | 0 mm | - | 0 W/m² | - |
| 1788336823 | 17.78° C | 49% | 926.6 hPa | 0 mm | - | 0 W/m² | - |
| 1788336518 | 16.11° C | 54% | 926.7 hPa | 0 mm | - | 0 W/m² | - |
| 1788336215 | 16.11° C | 54% | 926.7 hPa | 0 mm | - | 0 W/m² | - |
| 1788335914 | 15.56° C | 56% | 926.6 hPa | 0 mm | - | 0 W/m² | - |
| 1788335610 | 15.56° C | 55% | 926.9 hPa | 0 mm | - | 0 W/m² | - |
| 1788335305 | 15.56° C | 56% | 926.7 hPa | 0 mm | - | 0 W/m² | - |
| 1788335001 | 15.56° C | 55% | 926.8 hPa | 0 mm | - | 0 W/m² | - |
| 1788334701 | 16.11° C | 55% | 926.9 hPa | 0 mm | - | 0 W/m² | - |
| 1788334398 | 16.67° C | 52% | 927 hPa | 0 mm | - | 0 W/m² | - |
| 1788334094 | 17.22° C | 51% | 927 hPa | 0 mm | - | 0 W/m² | - |
| 1788333789 | 16.11° C | 54% | 927.1 hPa | 0 mm | - | 0 W/m² | - |
| 1788333486 | 16.67° C | 52% | 927.1 hPa | 0 mm | - | 0 W/m² | - |
| 1788333180 | 15.56° C | 57% | 927 hPa | 0 mm | - | 0 W/m² | - |
| 1788332877 | 16.11° C | 55% | 927.1 hPa | 0 mm | - | 0 W/m² | - |
| 1788332576 | 17.22° C | 50% | 927 hPa | 0 mm | - | 0 W/m² | - |
* Rain latest hour (hover to see other rain measurements)
** Current wind speed in m/s (hover to see current wind gust speed)